Location: Bakov nad Jizerou
(50.4784°N, 14.9394°E)
Time: 15:22:44
(UTC+00:00)

COSMOS 2428 - Pass Details

Date: 16 June 2021
Orbit: 845 x 858 km, 70.9° (Epoch: 03 August)

Event Time Altitude Azimuth Distance (km) Brightness Sun altitude
Exits shadow 22:01:03 12° 208° (SSW) 2,321 4.6 -15.0°
Maximum altitude 22:06:20 89° 296° (WNW) 865 2.7 -15.2°
Drops below altitude 10° 22:12:07 10° 30° (NNE) 2,504 5.9 -15.4°
Sets 22:14:35 0° 30° (NNE) 3,444 6.7 -15.4°
